Resolute,

7:06 PM CDT on May 22, 2018 (GMT -0500)
Resolute

Weather History for CYRB - October, 2012

Change the Weather History Date:

Friday, October 19, 2012

  Actual Average Record
Temperature  
Mean Temperature 10 °F -  
Max Temperature 18 °F -0 °F 32 °F (2003)
Min Temperature 1 °F -12 °F -7 °F (1999)
Degree Days  
Heating Degree Days 56    
Moisture  
Dew Point 7 °F    
Average Humidity 86    
Maximum Humidity 93    
Minimum Humidity 75    
Precipitation  
Precipitation 0.04 in 0.01 in - ()
Sea Level Pressure  
Sea Level Pressure 30.00 in    
Wind  
Wind Speed 5 mph ()    
Max Wind Speed 10 mph    
Max Gust Speed -    
Visibility 6.8 miles    
Events Fog , Snow    
Averages and records for this station are not official NWS values.
T = Trace of Precipitation, MM = Missing Value Source: Averaged Metar Reports

Daily Weather History Graph

Daily Weather History Graph

Search for Another Location

Airport or City:

Astronomy

Oct. 19, 2012 Rise Set
Actual Time 9:34 AM CDT 4:33 PM CDT
Civil Twilight 8:04 AM CDT 6:02 PM CDT
Nautical Twilight 6:32 AM CDT 7:34 PM CDT
Astronomical Twilight 4:55 AM CDT 9:09 PM CDT
Moon No Moon Rise No Moon Set
Length of Visible Light 9h 57m
Length of Day
6h 59m
Waxing Crescent, 24% of the Moon is Illuminated
Oct 19
Waxing Crescent
Oct 21
First Quarter
Oct 29
Full
Nov 6
Last Quarter
Nov 13
New

Hourly Weather History & Observations

Time (CDT) Temp. Windchill Dew Point Humidity Pressure Visibility Wind Dir Wind Speed Gust Speed Precip Events Conditions
12:00 AM 14.0 °F 2.9 °F 8.6 °F 79% 29.95 in 15.0 mi NNE 8.1 mph - N/A   Partly Cloudy
1:00 AM 14 °F - 10 °F 77% 29.96 in 15 mi NW 2.3 mph - -   Partly Cloudy
1:00 AM 14.0 °F - 10.4 °F 86% 29.96 in 15.0 mi NW 2.3 mph - N/A   Clear
2:00 AM 12.2 °F 4.3 °F 8.6 °F 85% 29.96 in 15.0 mi NNW 4.6 mph - N/A   Clear
3:00 AM 15.8 °F 10.2 °F 12.2 °F 86% 29.96 in 15.0 mi NNW 3.5 mph - N/A   Partly Cloudy
4:00 AM 15.8 °F 8.6 °F 10.4 °F 79% 29.97 in 15.0 mi NW 4.6 mph - N/A   Partly Cloudy
4:26 AM - - - N/A% - 0.5 mi NNW 3.5 mph - N/A Fog Light Freezing Fog
4:46 AM - - - N/A% - 0.8 mi Calm Calm - N/A   Clear
5:00 AM 17.6 °F - 14.0 °F 86% 29.96 in 0.8 mi Calm Calm - N/A   Clear
6:00 AM 19.4 °F 11.5 °F 15.8 °F 86% 29.96 in 1.5 mi WSW 5.8 mph - N/A   Clear
6:36 AM - - - N/A% - 6.0 mi WSW 8.1 mph - N/A   Overcast
7:00 AM 18 °F - 16 °F 87% 29.95 in 15 mi West 3.5 mph - -   Partly Cloudy
7:00 AM 17.6 °F 12.3 °F 15.8 °F 93% 29.95 in 15.0 mi West 3.5 mph - N/A Fog Overcast
8:00 AM 17.6 °F 9.3 °F 15.8 °F 93% 29.95 in 15.0 mi NNW 5.8 mph - N/A   Overcast
8:13 AM - - - N/A% - 2.0 mi NNW 9.2 mph - N/A   Overcast
8:38 AM - - - N/A% - 6.0 mi NNW 8.1 mph - N/A   Overcast
9:00 AM 15.8 °F 3.4 °F 14.0 °F 93% 29.96 in 4.0 mi NNW 10.4 mph - N/A   Overcast
9:48 AM - - - N/A% - 1.5 mi NNW 8.1 mph - N/A   Overcast
10:00 AM 14.0 °F 2.9 °F 12.2 °F 93% 29.97 in 0.8 mi NNW 8.1 mph - N/A   Mist
10:08 AM - - - N/A% - 0.5 mi NNW 8.1 mph - N/A Fog Light Freezing Fog
10:45 AM - - - N/A% - 1.0 mi North 8.1 mph - N/A   Overcast
11:00 AM 10.4 °F -2.4 °F 8.6 °F 92% 29.98 in 2.0 mi North 9.2 mph - N/A   Overcast
11:16 AM - - - N/A% - 3.0 mi North 10.4 mph - N/A   Overcast
11:41 AM - - - N/A% - 6.0 mi North 10.4 mph - N/A Fog Overcast
12:00 PM 8.6 °F -5.5 °F 5.0 °F 85% 29.98 in 8.0 mi North 10.4 mph - N/A Fog Mostly Cloudy
12:28 PM - - - N/A% - 8.0 mi NW 3.5 mph - N/A Fog Partly Cloudy
1:00 PM 5 °F - 3 °F 85% 30.00 in 7 mi North 6.9 mph - - Snow Snow
1:00 PM 5.0 °F -6.9 °F 3.2 °F 92% 30.00 in 8.0 mi North 6.9 mph - N/A Fog Partly Cloudy
2:00 PM 3.2 °F -9.1 °F 1.4 °F 92% 30.02 in 8.0 mi NNW 6.9 mph - N/A Fog Scattered Clouds
3:00 PM 3.2 °F -6.2 °F -0.4 °F 85% 30.01 in 8.0 mi North 4.6 mph - N/A Fog Scattered Clouds
3:47 PM - - - N/A% - 1.0 mi North 4.6 mph - N/A   Scattered Clouds
4:00 PM 3.2 °F -6.2 °F 1.4 °F 92% 30.03 in 1.0 mi North 4.6 mph - N/A   Scattered Clouds
4:44 PM - - - N/A% - 1.5 mi NNE 5.8 mph - N/A   Mostly Cloudy
5:00 PM 5.0 °F -5.6 °F 1.4 °F 85% 30.04 in 2.5 mi NNE 5.8 mph - N/A   Mostly Cloudy
5:15 PM - - - N/A% - 1.8 mi North 3.5 mph - N/A   Mostly Cloudy
5:38 PM - - - N/A% - 1.8 mi North 3.5 mph - N/A   Overcast
6:00 PM 6.8 °F -3.5 °F 3.2 °F 85% 30.04 in 1.8 mi North 5.8 mph - N/A Snow Light Snow
6:32 PM - - - N/A% - 4.0 mi North 4.6 mph - N/A   Scattered Clouds
7:00 PM 4 °F - -0 °F 75% 30.05 in 2 mi NNE 5.8 mph - - Snow Light Snow
7:00 PM 3.2 °F -7.8 °F -0.4 °F 85% 30.05 in 2.0 mi NNE 5.8 mph - N/A   Partly Cloudy
8:00 PM 3.2 °F -11.3 °F -0.4 °F 85% 30.06 in 8.0 mi NE 9.2 mph - N/A   Partly Cloudy
9:00 PM 1.4 °F -13.5 °F -2.2 °F 85% 30.07 in 15.0 mi NE 9.2 mph - N/A   Partly Cloudy
10:00 PM 3.2 °F -12.2 °F -0.4 °F 85% 30.07 in 15.0 mi NE 10.4 mph - N/A   Partly Cloudy
10:45 PM - - - N/A% - 15.0 mi ENE 9.2 mph - N/A   Mostly Cloudy
11:00 PM 3.2 °F -9.1 °F -0.4 °F 85% 30.09 in 15.0 mi ENE 6.9 mph - N/A   Mostly Cloudy